User: anonymous   Login
Location: Unspecified
(0.0000°N, 0.0000°E)
Time: 04:25:01
(UTC+00:00)
Language:

SO-67 - Orbit

View from above orbital plane
View from above orbital plane
View from above satellite
View from above satellite

Ground track
Ground track

The orbit data is extracted from the following two-line orbital elements,

1 35870U 09049F   15087.77792692  .00014890  00000-0  37761-3 0  9994
2 35870 097.1417 105.9219 0003312 114.6967 359.4497 15.39778150307731
Epoch (UTC): 28 March 2015 18:40:12
Eccentricity: 0.0003312
inclination: 97.1417°
perigee height: 444 km
apogee height: 449 km
right ascension of ascending node: 105.9219°
argument of perigee: 114.6967°
revolutions per day: 15.39778150
mean anomaly at epoch: 359.4497°
orbit number at epoch: 30773

The dashed part of the orbit path shows where the satellite is in the earth's shadow,  

DLR